z/d,0,0,50,50,100,100,200,200,300,300,400,400,500,500,750,750,1000,1000,2000,2000,3000,3000,4000,4000,4700,4700
2016.11.05-01:00,1.48,73.79,1.49,72.96,1.13,69.25,1.05,71.43,.98,77.97,.81,75.81,.82,72.77,.72,67.54,.40,52.87,.27,60.85,.15,37.66,.11,51.76,.04,72.45
2016.11.05-02:00,1.46,77.60,1.46,76.53,1.14,68.53,1.06,70.58,.95,77.32,.79,73.25,.81,72.31,.73,70.45,.43,52.47,.26,60.80,.16,40.43,.11,54.49,.04,74.44
2016.11.05-03:00,1.40,81.23,1.41,80.00,1.14,67.61,1.05,69.46,.92,75.72,.78,69.47,.79,71.00,.71,73.93,.46,52.70,.25,60.07,.15,41.88,.10,59.03,.04,76.80
2016.11.05-04:00,1.33,84.35,1.33,83.17,1.14,66.73,1.04,68.20,.88,73.32,.78,65.21,.76,69.25,.68,78.15,.48,54.46,.24,59.45,.12,41.48,.07,64.44,.02,78.59
2016.11.05-05:00,1.22,86.98,1.22,85.74,1.14,66.38,1.03,66.93,.86,70.04,.79,61.08,.74,67.34,.64,82.99,.49,58.49,.22,59.62,.09,37.87,.04,69.90,.00,274.30
2016.11.05-06:00,1.09,89.44,1.09,87.67,1.12,67.27,1.02,66.49,.85,66.72,.83,58.34,.74,66.27,.60,87.77,.50,64.31,.20,60.28,.06,28.35,.00,343.68,.03,266.22
2016.11.05-07:00,.97,91.17,.97,88.01,1.10,69.21,1.02,67.05,.85,64.11,.87,57.47,.75,66.16,.56,91.20,.49,70.26,.19,61.53,.05,16.20,.03,266.42,.04,267.14
2016.11.05-08:00,.87,91.34,.89,86.38,1.08,71.58,1.01,68.49,.86,62.73,.90,58.41,.76,66.74,.49,91.73,.46,74.85,.18,63.90,.03,11.44,.04,273.21,.05,268.35
2016.11.05-09:00,.80,89.16,.84,82.91,1.07,73.53,1.00,70.46,.88,62.78,.93,60.95,.76,68.00,.43,88.49,.43,77.89,.18,67.47,.03,19.15,.04,289.27,.04,270.90
2016.11.05-10:00,.77,85.44,.82,78.50,1.05,74.71,1.01,72.61,.91,64.02,.95,64.58,.77,69.92,.39,81.83,.39,79.74,.19,71.19,.03,31.25,.04,320.61,.03,277.65
2016.11.05-11:00,.78,81.74,.82,73.82,1.04,75.17,1.01,74.51,.95,65.82,.97,68.41,.78,71.79,.37,72.72,.35,79.80,.18,74.08,.04,39.05,.05,352.25,.02,300.12
2016.11.05-12:00,.79,77.62,.82,68.71,1.03,74.95,1.01,75.83,.99,67.72,.99,71.88,.79,73.16,.38,63.28,.33,77.24,.18,75.40,.05,44.06,.07,14.01,.01,39.48
2016.11.05-13:00,.83,72.90,.86,63.07,1.03,74.03,1.00,76.30,1.01,69.40,.99,74.72,.78,73.88,.41,55.52,.31,72.23,.16,74.68,.06,47.50,.08,29.11,.03,71.71
2016.11.05-14:00,.87,68.94,.91,58.61,1.02,73.27,.99,76.20,1.02,70.97,.96,77.11,.76,74.10,.43,50.67,.30,66.14,.14,70.44,.06,48.45,.08,40.91,.04,81.43
2016.11.05-15:00,.91,65.39,.96,55.78,1.01,72.72,.96,75.14,1.01,71.98,.92,78.58,.72,73.50,.46,49.10,.31,61.31,.12,61.27,.04,44.54,.07,51.61,.04,89.02
2016.11.05-16:00,.94,60.53,1.02,54.12,.99,72.01,.93,72.83,.99,72.09,.87,78.70,.70,72.04,.49,50.72,.33,59.95,.11,47.51,.03,20.78,.05,64.39,.03,101.80
2016.11.05-17:00,1.00,59.29,1.08,54.00,.97,71.24,.91,69.68,.97,71.44,.82,77.26,.68,69.73,.51,54.46,.34,61.86,.11,34.43,.03,312.23,.03,93.74,.01,159.56
2016.11.05-18:00,1.04,59.99,1.11,55.81,.94,70.69,.91,66.77,.96,70.74,.80,74.75,.69,67.02,.53,58.65,.35,65.15,.12,27.80,.05,289.73,.02,178.73,.03,232.48
2016.11.05-19:00,1.08,62.32,1.13,59.07,.92,70.53,.92,65.21,.96,70.84,.79,72.30,.71,64.97,.54,61.91,.35,67.63,.14,28.03,.07,290.50,.04,211.38,.05,246.49
2016.11.05-20:00,1.13,65.52,1.15,62.61,.91,70.73,.94,65.41,.96,72.10,.78,70.87,.73,64.27,.55,63.37,.34,67.45,.17,32.78,.07,301.64,.04,220.10,.06,251.42
2016.11.05-21:00,1.18,68.65,1.19,65.51,.92,70.89,.96,67.05,.96,74.38,.79,70.89,.76,65.25,.56,63.48,.33,64.54,.20,38.96,.07,323.20,.03,225.20,.06,254.79
2016.11.05-22:00,1.23,71.17,1.24,67.51,.94,70.39,.98,69.08,.95,76.76,.80,71.70,.80,67.33,.58,62.96,.34,60.46,.23,44.79,.07,352.61,.01,233.66,.05,258.39
2016.11.05-23:00,1.28,73.12,1.28,69.15,.96,69.00,1.00,70.62,.94,78.31,.81,72.30,.82,69.50,.61,62.34,.35,57.14,.25,49.65,.10,17.43,.02,42.82,.03,264.66
2016.11.05-24:00,1.30,74.93,1.29,71.32,.99,67.36,1.01,71.54,.92,78.69,.82,72.18,.84,71.17,.64,62.03,.37,55.30,.28,53.34,.13,32.34,.05,47.18,.01,288.82
2016.11.06-01:00,1.29,77.51,1.29,73.81,1.02,66.23,1.02,72.21,.90,78.20,.83,71.56,.84,72.43,.67,62.57,.40,54.78,.29,55.63,.15,40.49,.08,48.18,.01,38.14
2016.11.06-02:00,1.25,80.65,1.26,76.28,1.05,65.35,1.03,72.35,.89,76.67,.83,70.28,.83,73.03,.69,63.79,.43,54.51,.30,56.70,.17,45.61,.09,49.68,.02,60.25
2016.11.06-03:00,1.18,84.63,1.21,78.89,1.07,64.84,1.03,71.98,.87,74.24,.84,68.45,.80,72.86,.70,65.58,.45,54.12,.29,56.93,.16,49.66,.09,52.32,.03,67.01
2016.11.06-04:00,1.09,89.24,1.15,81.45,1.09,64.62,1.02,71.03,.85,71.03,.83,66.28,.77,72.03,.68,68.43,.47,54.64,.29,56.97,.15,53.00,.08,54.77,.03,69.63
2016.11.06-05:00,.98,93.27,1.06,83.00,1.10,64.35,1.00,69.20,.84,66.88,.84,63.73,.73,70.45,.66,72.84,.49,57.13,.28,57.56,.12,55.48,.06,54.66,.02,66.87
2016.11.06-06:00,.87,97.97,.95,83.65,1.10,64.87,.98,67.51,.85,62.90,.85,61.78,.70,68.86,.64,78.32,.51,61.24,.26,58.70,.08,55.72,.03,43.16,.00,4.92
2016.11.06-07:00,.75,104.06,.85,83.34,1.07,66.37,.97,66.47,.86,59.91,.86,60.98,.69,67.65,.61,83.42,.51,65.65,.25,60.59,.04,50.16,.02,345.18,.02,277.47
2016.11.06-08:00,.65,109.80,.78,81.95,1.05,68.29,.95,65.97,.88,58.15,.88,61.09,.69,66.58,.57,86.86,.50,69.53,.23,63.78,.02,27.09,.02,311.78,.02,272.03
2016.11.06-09:00,.58,114.67,.73,79.55,1.03,70.34,.95,66.39,.91,58.21,.89,62.36,.70,66.06,.51,87.71,.47,72.74,.22,67.83,.02,349.46,.03,317.00,.02,271.21
2016.11.06-10:00,.50,119.09,.70,76.02,1.02,72.04,.95,67.64,.94,59.98,.91,64.71,.71,66.41,.44,85.47,.42,75.22,.21,71.48,.03,350.54,.03,339.18,.01,274.23
2016.11.06-11:00,.41,122.25,.68,70.51,1.00,72.75,.96,69.08,.98,62.68,.93,67.51,.74,67.33,.40,80.03,.38,76.87,.21,74.05,.04,5.56,.04,5.83,.00,67.35
2016.11.06-12:00,.30,119.17,.68,63.15,.99,72.59,.98,70.46,1.02,65.72,.95,70.24,.76,68.30,.38,71.80,.34,76.66,.20,75.47,.05,17.26,.05,24.80,.02,84.66
2016.11.06-13:00,.21,99.80,.72,55.35,.98,72.02,.99,71.66,1.05,68.72,.97,72.65,.78,68.87,.39,62.57,.32,73.44,.18,75.56,.07,25.18,.06,38.15,.03,89.16
2016.11.06-14:00,.22,63.57,.78,49.32,.99,71.63,.99,72.76,1.06,71.71,.96,74.97,.78,69.30,.42,55.32,.31,68.03,.16,73.39,.07,29.18,.07,48.42,.03,93.95
2016.11.06-15:00,.34,45.49,.87,45.56,.99,71.57,.99,73.59,1.04,74.56,.93,77.31,.77,69.99,.46,51.77,.32,62.95,.14,67.32,.07,29.59,.06,57.85,.03,101.35
2016.11.06-16:00,.46,43.24,.96,42.70,1.00,71.17,.96,73.37,1.01,76.58,.89,79.05,.74,70.75,.49,51.85,.34,60.24,.12,56.20,.06,25.64,.05,68.86,.02,119.46
2016.11.06-17:00,.56,48.38,1.01,41.69,.99,70.78,.94,71.98,.97,77.22,.84,79.25,.72,70.82,.51,54.38,.36,60.21,.11,41.74,.05,13.86,.03,88.56,.01,192.54
2016.11.06-18:00,.60,58.07,1.03,44.20,.96,71.20,.91,69.82,.92,76.29,.79,77.16,.70,69.28,.53,57.46,.38,61.96,.12,30.56,.04,350.78,.02,147.88,.03,239.86
2016.11.06-19:00,.62,68.97,1.03,49.28,.93,72.76,.90,68.00,.89,74.62,.77,73.53,.71,66.93,.54,60.02,.39,64.27,.14,26.27,.04,327.89,.04,202.69,.06,251.34
2016.11.06-20:00,.65,77.16,1.02,54.93,.90,74.36,.91,67.30,.88,73.34,.76,70.42,.72,65.56,.54,61.94,.38,66.12,.17,27.58,.05,323.72,.05,220.45,.07,256.23
2016.11.06-21:00,.69,81.08,1.03,59.33,.88,75.04,.92,67.89,.88,73.17,.78,69.28,.75,66.14,.54,63.47,.36,66.69,.20,31.89,.05,336.62,.05,231.45,.08,259.68
2016.11.06-22:00,.72,82.34,1.04,62.05,.87,74.68,.94,69.37,.88,73.90,.79,69.95,.77,68.20,.54,64.49,.33,65.55,.23,37.31,.06,359.30,.03,247.01,.07,263.32
2016.11.06-23:00,.75,81.99,1.06,63.46,.87,73.41,.95,71.04,.88,74.68,.81,71.10,.79,70.32,.55,64.44,.32,62.76,.26,42.78,.08,21.11,.02,299.96,.06,268.25
2016.11.06-24:00,.77,81.13,1.07,64.31,.87,71.50,.95,72.42,.87,74.87,.82,71.69,.81,71.63,.57,63.58,.33,59.28,.28,47.60,.10,36.37,.03,20.01,.03,278.39
2016.11.07-01:00,.77,80.42,1.07,65.25,.88,69.29,.96,73.33,.87,74.50,.82,71.57,.81,72.27,.60,63.05,.35,56.48,.30,51.19,.12,45.64,.06,37.54,.01,331.90
2016.11.07-02:00,.77,80.47,1.06,66.71,.90,67.28,.96,73.81,.87,73.94,.82,71.13,.80,72.75,.63,63.67,.39,54.73,.31,53.33,.14,51.06,.08,43.82,.02,54.93
2016.11.07-03:00,.76,81.48,1.05,68.57,.93,65.73,.96,73.74,.88,73.18,.81,70.39,.79,73.11,.65,65.28,.42,53.48,.32,54.31,.15,54.64,.09,47.71,.04,69.20
2016.11.07-04:00,.73,83.21,1.03,70.47,.95,64.48,.96,72.83,.87,71.77,.81,69.01,.76,72.97,.65,67.59,.45,52.76,.32,54.76,.14,57.82,.09,51.69,.04,75.78
2016.11.07-05:00,.68,85.15,.98,72.01,.97,63.49,.95,70.99,.87,69.44,.80,66.87,.72,72.16,.64,70.88,.48,53.49,.31,55.46,.12,60.63,.07,55.28,.04,80.53
2016.11.07-06:00,.61,86.50,.91,72.90,.98,62.89,.94,68.61,.86,66.48,.80,64.43,.69,70.90,.62,75.23,.50,56.13,.30,56.90,.09,61.88,.05,55.86,.03,84.89
2016.11.07-07:00,.53,86.96,.84,73.21,.98,62.97,.93,66.54,.86,63.72,.81,62.63,.67,69.56,.59,79.63,.52,59.91,.28,59.24,.05,59.12,.03,47.46,.02,93.93
2016.11.07-08:00,.46,86.28,.78,73.08,.98,64.05,.93,65.55,.88,62.15,.82,62.06,.67,68.43,.55,82.80,.52,63.82,.27,62.63,.02,36.30,.01,352.87,.00,195.37
2016.11.07-09:00,.40,83.76,.74,72.64,.98,66.00,.93,65.81,.89,62.07,.84,62.66,.67,67.63,.50,83.93,.50,67.66,.25,67.00,.02,332.89,.02,310.26,.01,244.91
2016.11.07-10:00,.32,82.03,.70,71.69,.97,68.31,.93,67.21,.91,63.48,.86,64.36,.69,67.48,.44,82.35,.46,71.36,.24,71.40,.03,326.11,.02,316.32,.02,247.93
2016.11.07-11:00,.27,72.22,.67,68.90,.96,70.13,.93,69.22,.92,65.89,.88,66.78,.71,67.98,.39,77.69,.42,74.71,.22,74.19,.05,340.33,.03,339.89,.01,248.20
2016.11.07-12:00,.26,54.86,.65,63.93,.94,71.18,.94,71.41,.94,68.83,.90,69.54,.73,69.01,.37,71.19,.38,78.06,.21,76.41,.06,358.76,.03,10.37,.01,228.58
2016.11.07-13:00,.29,36.85,.66,58.21,.93,71.69,.96,73.39,.96,71.64,.92,72.05,.75,69.71,.37,63.28,.34,79.16,.19,76.45,.07,13.64,.04,32.86,.01,142.99
2016.11.07-14:00,.37,28.28,.69,53.85,.92,72.01,.97,75.17,.97,74.20,.93,74.36,.76,70.09,.41,56.39,.32,76.60,.17,74.32,.09,25.77,.05,50.78,.01,118.69
2016.11.07-15:00,.48,26.83,.75,51.06,.92,71.89,.96,76.54,.96,76.34,.92,76.56,.76,70.47,.45,52.70,.32,71.11,.16,69.11,.09,34.03,.05,65.03,.01,127.63
2016.11.07-16:00,.61,30.78,.83,49.88,.92,70.97,.95,77.29,.93,77.92,.89,78.74,.74,71.51,.49,53.11,.33,66.04,.14,60.68,.09,40.11,.05,78.22,.01,151.87
2016.11.07-17:00,.74,36.97,.91,50.06,.93,69.61,.92,77.06,.89,78.19,.85,80.17,.71,72.54,.51,55.78,.35,62.73,.14,49.41,.08,42.76,.04,91.91,.01,205.75
2016.11.07-18:00,.83,44.42,.97,52.16,.94,69.41,.89,75.87,.85,76.65,.80,79.81,.69,72.27,.53,58.82,.37,61.45,.14,39.46,.06,42.13,.03,118.66,.03,240.51
2016.11.07-19:00,.81,48.60,.99,56.42,.91,71.22,.86,73.92,.83,73.66,.77,77.55,.68,70.43,.55,61.29,.38,62.23,.16,34.40,.04,34.69,.03,174.87,.05,253.10
2016.11.07-20:00,.77,52.72,.97,61.22,.87,73.70,.85,71.40,.82,70.35,.76,74.72,.69,68.56,.56,63.27,.39,64.08,.18,33.60,.03,16.32,.04,216.14,.07,258.89
2016.11.07-21:00,.76,57.11,.97,65.45,.85,75.53,.85,69.44,.84,68.37,.76,73.30,.71,68.31,.55,65.23,.37,65.92,.20,35.86,.03,6.87,.05,235.66,.08,262.48
2016.11.07-22:00,.77,60.21,.98,68.24,.83,76.11,.86,68.54,.86,67.92,.77,73.39,.72,69.39,.53,66.84,.35,66.52,.23,39.67,.04,14.96,.04,254.01,.07,265.74
2016.11.07-23:00,.80,62.28,.99,69.90,.83,75.92,.88,68.88,.88,68.66,.77,74.23,.73,70.86,.51,67.30,.32,64.87,.25,43.88,.05,29.10,.03,284.54,.06,269.54
2016.11.07-24:00,.83,63.56,1.00,70.73,.83,75.10,.89,69.92,.90,69.90,.78,75.00,.75,71.99,.52,66.55,.32,61.67,.27,47.65,.08,39.96,.03,350.33,.03,277.67
2016.11.08-01:00,.86,64.48,1.00,71.31,.83,73.84,.90,70.84,.93,71.19,.78,75.18,.76,72.52,.54,65.41,.33,58.77,.29,50.75,.10,46.86,.05,27.14,.01,338.20
2016.11.08-02:00,.88,66.27,1.00,72.76,.84,72.92,.91,71.41,.95,72.65,.78,74.86,.77,72.63,.57,64.51,.36,56.33,.30,52.83,.12,51.50,.07,41.01,.03,68.01
2016.11.08-03:00,.88,68.75,.99,75.05,.84,72.22,.92,71.46,.97,74.01,.78,73.98,.77,72.48,.59,64.47,.39,54.51,.31,54.01,.14,54.87,.09,48.79,.05,78.08
2016.11.08-04:00,.88,71.30,.97,77.66,.85,71.42,.94,71.11,.98,74.96,.78,72.59,.76,72.41,.62,66.04,.43,53.98,.32,54.58,.14,56.66,.10,52.77,.06,81.70
2016.11.08-05:00,.86,73.40,.94,80.04,.86,70.54,.96,70.21,.97,74.89,.78,70.37,.75,72.22,.63,69.09,.47,54.77,.32,55.00,.14,57.39,.10,54.87,.06,84.32
2016.11.08-06:00,.83,75.00,.90,82.15,.86,70.09,.97,68.79,.95,73.61,.78,67.36,.73,71.62,.62,72.95,.50,56.49,.32,55.78,.12,57.42,.08,55.97,.06,87.28
2016.11.08-07:00,.79,76.01,.84,84.14,.84,70.45,.97,67.59,.92,71.70,.79,64.50,.71,70.81,.60,76.84,.52,58.77,.31,57.25,.09,55.88,.06,54.83,.04,91.67
2016.11.08-08:00,.73,75.61,.77,85.57,.82,71.19,.97,67.03,.91,69.81,.81,62.59,.70,69.91,.57,79.76,.52,61.25,.30,59.53,.07,51.45,.04,49.33,.02,103.11
2016.11.08-09:00,.70,73.48,.71,86.32,.80,72.30,.98,67.46,.91,68.82,.83,62.18,.70,69.21,.51,81.06,.51,63.90,.29,62.39,.05,40.66,.02,31.60,.01,171.99
2016.11.08-10:00,.68,69.42,.66,86.75,.77,73.93,.98,69.11,.90,69.36,.84,63.43,.70,69.15,.45,80.07,.47,66.72,.27,65.32,.04,25.54,.02,7.07,.01,239.18
2016.11.08-11:00,.70,64.50,.62,85.91,.74,75.03,.97,71.38,.90,71.04,.86,65.81,.70,69.63,.40,75.80,.44,69.48,.26,67.93,.05,18.78,.03,4.21,.02,249.61
2016.11.08-12:00,.74,60.27,.58,82.57,.71,74.60,.97,73.43,.90,73.01,.88,68.54,.72,70.30,.38,68.67,.40,71.89,.24,69.98,.06,22.39,.03,18.98,.02,250.42
2016.11.08-13:00,.82,58.64,.55,77.92,.69,73.42,.97,75.36,.90,75.02,.90,71.33,.74,71.15,.38,61.29,.37,73.29,.23,70.79,.08,29.62,.04,35.33,.01,241.74
2016.11.08-14:00,.91,59.98,.55,73.21,.69,72.08,.98,77.15,.91,76.71,.92,73.81,.75,71.97,.42,56.18,.35,72.91,.22,70.00,.09,36.75,.06,47.17,.00,152.13
2016.11.08-15:00,.97,63.27,.58,68.40,.70,70.24,.98,78.38,.90,77.50,.92,75.57,.76,72.59,.47,53.96,.35,70.75,.20,67.50,.10,43.05,.07,56.37,.01,107.50
2016.11.08-16:00,.98,67.70,.63,64.59,.73,68.22,.97,78.92,.88,77.25,.90,76.86,.75,73.51,.52,54.53,.37,68.19,.19,63.06,.11,47.32,.07,63.16,.01,106.40
2016.11.08-17:00,.97,72.66,.71,61.72,.77,66.23,.95,78.59,.86,75.75,.88,77.67,.73,74.73,.55,56.84,.38,66.43,.19,57.30,.11,50.04,.06,68.54,.01,114.63
2016.11.08-18:00,.94,79.39,.77,63.16,.80,65.86,.93,77.71,.84,73.18,.84,77.86,.71,75.44,.58,59.36,.40,65.37,.19,51.24,.10,51.42,.05,74.14,.00,207.50
2016.11.08-19:00,.86,85.25,.79,67.56,.82,67.78,.90,76.64,.83,70.25,.82,77.31,.69,74.76,.60,61.36,.41,64.96,.20,46.18,.09,51.20,.03,84.13,.02,253.98
2016.11.08-20:00,.77,87.29,.78,72.58,.82,70.43,.88,75.02,.85,67.39,.81,76.09,.69,72.79,.61,63.09,.42,65.48,.21,43.39,.07,49.51,.01,131.18,.04,260.23
2016.11.08-21:00,.72,88.74,.76,77.44,.82,73.25,.87,73.62,.87,65.79,.81,75.22,.70,70.98,.60,65.09,.41,66.57,.23,42.67,.06,45.33,.02,236.94,.05,263.66
2016.11.08-22:00,.70,89.57,.75,80.77,.82,75.56,.86,72.99,.90,65.49,.80,74.99,.70,69.96,.58,67.53,.38,67.79,.24,43.80,.05,40.77,.03,268.20,.06,267.10
2016.11.08-23:00,.67,88.71,.73,82.16,.82,77.36,.86,73.24,.93,66.15,.80,75.13,.70,69.57,.55,70.01,.35,68.60,.26,46.10,.06,39.27,.03,302.73,.05,271.81
2016.11.08-24:00,.65,87.69,.70,82.41,.82,79.31,.86,74.45,.96,67.74,.81,75.47,.71,69.53,.53,71.69,.32,68.11,.27,48.49,.08,40.59,.04,342.28,.03,281.31
2016.11.09-01:00,.62,87.21,.67,81.21,.80,80.84,.85,75.55,1.00,69.50,.82,75.41,.73,69.24,.53,71.82,.31,66.18,.28,50.79,.10,44.40,.06,12.16,.01,335.17
2016.11.09-02:00,.60,88.56,.65,78.91,.79,81.78,.84,75.92,1.03,71.40,.83,75.10,.76,68.84,.53,70.80,.32,62.87,.29,52.67,.12,49.06,.08,30.80,.03,65.49
2016.11.09-03:00,.59,91.87,.63,76.45,.77,82.22,.84,75.60,1.05,73.61,.84,74.95,.77,68.80,.55,69.56,.34,58.49,.30,53.75,.14,53.41,.11,42.87,.06,77.89
2016.11.09-04:00,.57,94.52,.63,73.40,.75,81.23,.84,74.01,1.05,75.45,.83,74.53,.78,69.09,.57,69.12,.38,54.75,.32,54.52,.16,57.23,.12,51.20,.08,82.47
2016.11.09-05:00,.55,96.84,.64,70.70,.74,79.04,.85,71.15,1.04,76.38,.83,73.38,.80,69.54,.59,70.07,.42,52.75,.33,55.22,.16,60.22,.12,56.90,.08,85.37
2016.11.09-06:00,.54,101.39,.65,70.90,.73,78.03,.86,68.65,1.02,76.92,.83,72.01,.80,70.44,.60,72.28,.47,52.41,.33,55.62,.15,61.67,.11,60.09,.08,87.69
2016.11.09-07:00,.53,107.57,.65,73.53,.72,78.66,.88,67.02,1.00,77.12,.83,70.58,.80,71.46,.59,74.90,.51,53.30,.33,56.01,.14,61.71,.10,61.37,.06,90.26
2016.11.09-08:00,.51,112.31,.63,76.18,.70,79.44,.90,65.79,.97,76.64,.83,68.90,.80,71.90,.57,76.91,.53,54.96,.33,56.81,.12,61.04,.07,62.06,.04,95.15
2016.11.09-09:00,.49,116.70,.60,78.34,.67,80.21,.92,65.29,.94,76.04,.84,67.63,.79,71.98,.52,77.80,.54,57.04,.31,58.04,.09,59.24,.05,61.87,.02,109.33
2016.11.09-10:00,.46,121.93,.56,80.35,.64,81.29,.93,65.99,.91,76.10,.84,67.34,.77,72.32,.46,77.25,.52,59.62,.30,59.59,.08,54.72,.03,55.91,.01,191.79
2016.11.09-11:00,.43,126.35,.53,81.23,.61,81.85,.94,67.58,.88,76.72,.83,67.78,.75,72.83,.41,74.41,.50,62.93,.29,61.57,.07,48.52,.02,39.01,.02,246.36
2016.11.09-12:00,.39,129.43,.49,79.78,.58,80.88,.95,69.70,.86,77.38,.84,68.42,.74,73.11,.38,68.58,.46,66.90,.28,63.81,.07,44.46,.02,24.82,.03,257.39
2016.11.09-13:00,.34,132.83,.45,75.81,.56,78.48,.98,72.44,.86,78.08,.86,69.36,.75,73.45,.38,61.58,.43,71.21,.26,65.78,.08,44.04,.03,25.80,.03,263.62
2016.11.09-14:00,.28,136.81,.41,68.81,.55,75.00,1.00,75.74,.87,78.94,.88,70.79,.77,74.19,.41,56.34,.41,74.74,.25,67.01,.09,46.37,.05,32.85,.02,271.07
2016.11.09-15:00,.21,136.65,.39,58.68,.55,70.36,1.01,79.01,.87,79.46,.91,72.34,.79,75.12,.46,53.43,.40,75.86,.24,67.36,.10,50.79,.06,41.07,.01,290.03
2016.11.09-16:00,.16,122.54,.42,49.39,.58,65.56,1.01,81.76,.87,79.30,.92,73.91,.79,76.31,.52,52.85,.40,74.58,.24,66.60,.11,55.55,.08,48.27,.01,33.39
2016.11.09-17:00,.16,91.43,.50,46.02,.64,61.98,1.00,83.77,.86,78.54,.92,75.66,.79,77.96,.58,54.65,.41,72.71,.24,64.41,.12,58.37,.08,52.27,.01,60.46
2016.11.09-18:00,.25,74.83,.58,46.39,.70,60.62,.97,85.00,.85,77.18,.91,77.26,.77,79.39,.62,57.47,.42,71.05,.24,61.17,.12,59.53,.08,54.51,.02,64.78
2016.11.09-19:00,.32,76.19,.64,49.57,.76,62.27,.92,85.39,.83,75.14,.89,78.17,.74,79.48,.65,60.06,.43,69.57,.24,57.57,.11,59.65,.07,56.37,.01,64.24
2016.11.09-20:00,.37,81.78,.67,54.23,.79,65.81,.86,84.43,.83,72.32,.87,78.08,.71,78.00,.67,62.46,.43,68.98,.24,54.35,.10,58.14,.05,56.66,.01,50.79
2016.11.09-21:00,.40,86.64,.69,58.90,.81,69.77,.81,81.83,.83,69.02,.85,77.10,.69,75.62,.67,65.04,.41,69.62,.25,52.05,.09,54.73,.04,52.76,.00,309.14
2016.11.09-22:00,.44,90.61,.71,63.82,.82,74.19,.77,78.74,.84,66.48,.83,76.12,.68,73.28,.65,67.93,.38,70.66,.25,50.45,.08,49.56,.03,39.77,.01,281.79
2016.11.09-23:00,.49,94.21,.72,68.69,.82,79.08,.75,76.71,.86,65.69,.81,75.88,.66,71.69,.61,71.14,.34,71.08,.25,49.40,.08,43.91,.03,21.70,.01,284.74
2016.11.09-24:00,.51,96.30,.72,72.00,.80,83.29,.74,75.69,.88,66.24,.80,76.14,.66,70.78,.58,74.19,.31,70.23,.26,49.22,.09,40.61,.04,16.80,.01,314.49
2016.11.10-01:00,.50,96.52,.70,73.09,.76,85.92,.73,74.81,.91,67.44,.80,76.40,.67,70.16,.56,76.34,.29,68.09,.26,50.12,.10,41.07,.05,23.11,.01,51.56
2016.11.10-02:00,.48,94.90,.67,72.36,.72,86.60,.74,73.60,.94,69.04,.81,76.49,.69,69.46,.55,77.25,.29,64.80,.27,51.66,.12,44.56,.07,32.90,.03,73.04
2016.11.10-03:00,.46,92.08,.64,71.14,.68,85.79,.76,72.54,.98,71.26,.83,76.62,.72,68.60,.54,76.86,.31,59.86,.28,52.95,.14,49.58,.10,42.94,.05,80.00
2016.11.10-04:00,.45,89.02,.63,70.13,.65,83.87,.79,71.99,1.01,73.90,.85,76.76,.75,67.83,.54,75.58,.34,53.97,.30,53.66,.16,54.68,.11,51.80,.07,83.93
2016.11.10-05:00,.45,85.09,.62,68.91,.64,80.60,.82,71.50,1.03,76.33,.86,76.62,.78,67.55,.56,74.66,.39,49.82,.32,54.23,.18,58.68,.12,57.95,.08,86.42
2016.11.10-06:00,.48,80.46,.64,68.41,.64,77.07,.85,70.95,1.03,78.13,.86,76.04,.82,68.01,.57,74.89,.46,48.46,.34,55.02,.18,61.09,.12,60.55,.08,88.03
2016.11.10-07:00,.52,76.94,.66,70.03,.65,74.99,.88,70.68,1.02,79.20,.86,74.93,.84,68.90,.57,75.74,.51,48.95,.35,55.94,.18,62.16,.11,59.78,.06,89.12
2016.11.10-08:00,.57,76.18,.68,72.52,.67,74.54,.89,70.65,.99,79.38,.86,73.25,.85,69.77,.55,76.45,.55,50.44,.35,56.82,.17,62.58,.09,56.75,.04,90.45
2016.11.10-09:00,.58,77.14,.67,74.67,.66,74.84,.89,70.47,.96,78.69,.85,71.19,.85,70.28,.51,76.43,.57,52.45,.34,57.59,.15,63.32,.07,53.26,.02,95.59
2016.11.10-10:00,.58,77.85,.65,76.07,.65,75.18,.88,70.30,.91,77.72,.84,69.36,.83,70.70,.47,75.65,.57,55.21,.33,58.40,.13,64.08,.05,47.59,.00,213.25
2016.11.10-11:00,.55,77.55,.62,76.11,.62,74.90,.87,70.47,.86,77.05,.82,68.21,.81,71.36,.42,74.06,.56,59.33,.31,59.82,.10,63.25,.04,31.78,.02,261.87
2016.11.10-12:00,.49,75.78,.59,74.72,.60,73.82,.86,71.21,.83,76.89,.81,67.74,.79,72.10,.39,70.90,.54,64.85,.30,62.14,.09,59.55,.04,9.05,.04,268.37
2016.11.10-13:00,.45,70.96,.57,72.69,.59,72.45,.86,72.85,.81,77.27,.82,68.04,.78,72.96,.37,65.44,.50,71.05,.28,64.80,.08,54.39,.05,3.42,.04,273.62
2016.11.10-14:00,.46,64.51,.56,69.97,.58,70.75,.87,75.28,.81,78.02,.84,69.14,.79,74.08,.38,58.97,.47,76.72,.27,66.91,.09,51.90,.06,13.51,.04,281.57
2016.11.10-15:00,.49,59.90,.55,65.85,.59,68.26,.88,77.93,.82,78.66,.88,70.73,.81,75.39,.42,53.76,.44,80.38,.26,67.76,.10,53.57,.08,28.57,.02,307.53
2016.11.10-16:00,.53,54.60,.57,60.14,.61,64.61,.89,80.03,.83,78.66,.91,72.33,.82,76.67,.48,51.07,.43,81.23,.25,67.17,.12,57.71,.10,42.68,.02,47.26
2016.11.10-17:00,.60,50.95,.63,54.94,.65,60.40,.89,81.16,.84,77.88,.93,73.92,.83,78.16,.54,51.32,.42,80.10,.25,65.39,.13,61.28,.11,52.47,.04,70.85
2016.11.10-18:00,.69,50.98,.71,53.60,.71,58.05,.89,81.54,.85,76.66,.95,75.58,.83,79.80,.61,53.58,.42,78.01,.26,62.89,.14,62.72,.12,57.77,.05,76.01
2016.11.10-19:00,.77,54.25,.78,56.14,.78,58.82,.87,81.40,.86,75.10,.95,76.95,.82,80.80,.67,56.07,.43,75.19,.27,60.33,.14,62.51,.11,60.65,.05,78.10
2016.11.10-20:00,.80,58.86,.83,60.47,.83,61.66,.85,80.67,.85,73.21,.94,77.87,.79,80.93,.71,58.71,.43,72.70,.27,58.08,.13,60.29,.10,61.49,.05,78.93
2016.11.10-21:00,.80,62.67,.86,64.89,.85,64.82,.81,78.98,.85,70.84,.91,78.15,.75,80.21,.72,61.89,.42,71.16,.27,56.33,.12,55.72,.08,59.71,.04,78.78
2016.11.10-22:00,.79,66.42,.88,68.98,.87,68.00,.78,76.55,.84,68.25,.87,77.80,.70,78.54,.71,65.38,.39,69.83,.27,55.19,.11,49.40,.06,54.93,.03,77.90
2016.11.10-23:00,.77,70.53,.88,72.65,.87,71.28,.75,74.00,.85,66.23,.82,77.23,.66,76.16,.68,69.12,.36,68.01,.27,54.67,.10,41.65,.04,43.43,.01,73.37
2016.11.10-24:00,.73,74.13,.86,75.37,.86,74.18,.74,71.75,.86,65.30,.79,76.82,.63,73.78,.64,73.33,.32,66.03,.26,54.54,.10,33.59,.03,21.26,.00,25.41
2016.11.11-01:00,.69,76.08,.82,76.61,.83,76.14,.73,69.75,.88,65.38,.77,76.40,.62,71.61,.60,77.49,.30,64.41,.26,54.65,.11,29.36,.04,9.78,.00,348.84
2016.11.11-02:00,.65,76.86,.78,76.91,.80,77.42,.74,68.21,.91,66.46,.76,75.79,.63,69.34,.56,80.39,.29,62.53,.26,54.86,.12,31.01,.05,16.76,.01,62.94
2016.11.11-03:00,.60,77.68,.74,77.16,.77,78.51,.77,67.51,.96,68.53,.77,74.99,.65,66.72,.54,80.77,.30,59.11,.26,55.18,.14,37.11,.07,30.64,.02,79.84
2016.11.11-04:00,.54,78.81,.69,77.23,.74,79.22,.80,67.69,1.00,71.37,.79,74.21,.70,64.42,.53,79.00,.33,54.65,.27,55.48,.16,44.75,.09,43.26,.04,84.83
2016.11.11-05:00,.47,78.22,.65,75.52,.72,78.35,.84,68.01,1.03,74.28,.82,73.47,.75,63.31,.54,77.16,.39,51.51,.29,55.76,.19,51.45,.10,51.17,.06,86.71
2016.11.11-06:00,.42,73.87,.62,71.42,.70,75.58,.87,68.05,1.04,76.76,.84,72.73,.81,63.71,.56,76.86,.45,50.79,.31,56.19,.20,56.36,.12,54.33,.06,87.12
2016.11.11-07:00,.41,67.19,.61,66.83,.70,72.18,.91,68.09,1.04,78.59,.87,71.86,.86,65.08,.57,77.63,.51,51.32,.33,56.81,.21,59.82,.12,54.23,.06,86.52
2016.11.11-08:00,.43,62.44,.63,64.33,.71,69.82,.94,68.53,1.02,79.62,.89,70.82,.90,66.78,.56,78.17,.55,52.00,.34,57.55,.21,62.49,.11,52.33,.05,84.97
2016.11.11-09:00,.46,60.78,.66,63.80,.74,68.83,.96,69.21,.99,79.77,.90,69.73,.91,68.58,.53,77.85,.58,52.88,.34,58.34,.19,64.82,.10,49.44,.03,81.69
2016.11.11-10:00,.53,59.79,.69,63.50,.76,68.54,.96,69.74,.95,79.14,.90,68.84,.90,70.38,.48,76.49,.58,54.42,.33,59.09,.17,67.10,.09,46.01,.01,69.15
2016.11.11-11:00,.56,59.30,.72,62.83,.77,68.52,.96,70.26,.90,78.13,.89,68.30,.87,72.13,.43,73.97,.57,57.19,.32,59.95,.14,68.97,.07,40.23,.01,285.40
2016.11.11-12:00,.59,58.83,.74,62.10,.77,68.74,.94,71.19,.84,77.08,.87,68.21,.83,73.74,.38,70.04,.55,61.77,.30,61.58,.11,69.63,.05,30.31,.03,275.81
2016.11.11-13:00,.60,58.89,.74,61.85,.76,69.32,.92,72.72,.80,76.18,.85,68.50,.79,74.88,.35,64.21,.53,67.63,.29,63.85,.09,67.30,.05,18.41,.04,276.11
2016.11.11-14:00,.61,59.66,.74,62.19,.74,70.08,.91,74.73,.78,75.52,.85,69.28,.78,75.53,.36,57.88,.50,73.83,.27,66.39,.08,62.21,.05,17.01,.04,280.08
2016.11.11-15:00,.62,60.33,.73,62.53,.73,70.35,.90,76.86,.78,75.03,.88,70.59,.78,76.08,.41,53.86,.48,79.36,.26,68.51,.08,57.40,.06,27.05,.02,292.61
2016.11.11-16:00,.64,60.58,.73,62.43,.72,69.62,.90,78.76,.79,74.51,.91,72.20,.81,76.75,.47,52.60,.47,82.84,.25,69.25,.09,55.70,.08,41.16,.01,16.70